#timestamp,LO_Frequency,Hit,StdDev 
1635127215.4,286046997.8,N
1635127235.2,286046997.9,N
1635127255.1,286046998.0,N
1635127256.0,286046998.0,N
1635127275.8,286046995.4,N
1635127295.6,286046995.1,N
1635127315.5,286046997.6,N
1635127335.3,286046999.3,N
1635127355.1,286046996.9,N
1635127375.9,286046999.4,N
1635127395.7,286046999.0,N
1635127415.5,286046999.1,N
1635127435.4,286046998.9,N
1635127455.2,286046998.3,N
1635127475.0,286046999.1,N
1635127475.9,286046999.1,N
1635127495.8,286047001.1,N
1635127515.6,286046998.2,N
1635127535.4,286046999.6,N
1635127555.3,286046999.2,N
1635127575.1,286046998.1,N
1635127576.0,286046998.1,N
1635127595.8,286046998.3,N
1635127615.7,286046996.5,N
1635127635.5,286047000.6,N
1635127655.3,286047001.1,N
1635127675.2,286046999.4,N
1635127695.9,286046996.6,N
1635127715.7,286046999.5,N
1635127765.6,286046998.8,E
1635127775.5,286047001.0,N
1635127795.3,286046998.6,P
1635127815.2,286046999.3,N
1635127835.0,286046998.7,N
1635127835.9,286046998.7,N
1635127855.7,286046998.4,N
1635127875.6,286046999.6,N
1635127895.4,286046998.8,N
1635127915.2,286047001.1,N
1635127935.1,286047000.6,N
1635127936.0,286047000.6,N
1635127955.8,286047000.6,N
1635127975.7,286047000.6,N
1635127995.5,286047000.8,N
1635128015.3,286047001.0,N
1635128035.2,286047001.2,N
1635128055.9,286046998.7,N
1635128075.7,286046999.6,N
1635128095.6,286046996.9,Y
1635128115.4,286046998.7,P
1635128135.2,286046996.9,P
1635128155.1,286046999.1,N
1635128156.0,286046999.1,N
1635128175.8,286046999.0,N
1635128195.6,286046998.9,N
1635128215.5,286046998.7,N
1635128235.3,286046999.4,N
1635128255.1,286046996.6,Y
1635128275.9,286046999.8,P
1635128295.7,286047002.7,P
1635128315.5,286047002.4,N
1635128335.4,286047000.1,N
1635128355.2,286046998.4,N
1635128375.0,286046999.4,N
1635128375.9,286046999.4,N
1635128395.7,286046997.3,N
1635128415.6,286046997.7,N
1635128435.4,286046998.0,N
1635128455.2,286046997.0,N
1635128475.1,286046999.2,N
1635128476.0,286046999.2,N
1635128495.8,286046996.5,N
1635128515.6,286046997.1,N
1635128535.5,286046996.9,N
1635128555.3,286046998.0,N
1635128575.1,286046995.2,N
1635128595.9,286046997.0,N
1635128615.7,286046996.8,N
1635128635.5,286046996.8,N
1635128655.4,286046997.1,N
1635128675.2,286046997.4,N
1635128695.0,286046997.5,N
1635128695.9,286046997.5,N
1635128715.8,286046997.2,N
1635128735.6,286046997.0,N
1635128755.4,286046999.4,N
1635128775.3,286046999.0,N
1635128795.1,286046996.9,N
1635128815.8,286046999.5,N
1635128835.7,286046998.5,N
1635128855.5,286046999.0,N
1635128875.3,286047000.4,N
1635128895.2,286046998.6,N
1635128915.0,286046998.7,N
1635128915.9,286046998.7,N
1635128935.7,286046996.9,N
1635128955.6,286046995.3,Y
1635128975.4,286046999.5,P
1635128995.2,286047000.7,N
1635129015.1,286046998.1,N
1635129016.0,286046998.1,N
1635129035.8,286047000.8,N
1635129055.6,286046998.2,N
1635129075.5,286047001.0,N
1635129095.3,286046998.8,N
1635129115.1,286046999.3,N
1635129135.9,286046998.9,N
1635129155.7,286046998.7,N
1635129175.5,286047001.0,N
1635129195.4,286046998.5,N
1635129215.2,286046998.9,N
1635129235.0,286047000.0,N
1635129235.9,286047000.0,N
1635129255.8,286047002.5,N
1635129275.6,286047002.7,N
1635129295.4,286047002.7,N
1635129315.3,286047000.5,N
1635129335.1,286047001.0,N
1635129336.0,286047001.0,N
1635129355.8,286047000.5,N
1635129375.7,286047000.7,N
1635129395.5,286047002.3,N
1635129415.3,286047003.5,N
1635129435.2,286047001.5,N
1635129455.9,286047002.1,N
1635129475.7,286047000.1,N
1635129495.6,286046999.9,N
1635129515.4,286046999.8,N
1635129535.2,286047004.4,N
1635129555.1,286047001.8,N
1635129556.0,286047001.8,N
1635129575.8,286047001.6,N
1635129595.6,286047001.9,N
1635129615.5,286047002.4,N
1635129635.3,286047001.8,N
1635129655.1,286047001.8,N
1635129675.9,286047003.2,N
1635129695.7,286047004.4,Y
1635129715.5,286047002.3,P
1635129735.4,286046999.7,N
1635129755.2,286047000.3,N
1635129775.0,286047000.7,N
1635129775.9,286047000.7,N
1635129795.8,286047000.1,N
1635129815.6,286047002.7,Y
1635129835.4,286047000.4,P
1635129855.3,286047002.8,P
1635129875.1,286047002.7,N
1635129876.0,286047002.7,N
1635129895.8,286047000.3,N
1635129915.7,286047000.3,N
1635129935.5,286047000.2,N
1635129955.3,286047000.3,N
1635129975.2,286047000.0,N
1635129995.9,286047002.8,N
1635130015.7,286047000.0,N
1635130035.6,286047002.8,N
1635130055.4,286047002.7,N
1635130075.2,286047002.4,N
1635130095.1,286047000.4,N
1635130096.0,286047000.4,N
1635130115.8,286047002.2,N
1635130135.6,286046998.5,N
1635130155.5,286046998.1,N
1635130175.3,286046999.6,N
1635130195.1,286046998.2,N
1635130215.9,286046998.3,N
1635130235.7,286047000.4,N
1635130255.5,286046999.7,N
1635130275.4,286047001.9,N
1635130295.2,286047000.9,N
1635130315.0,286047000.0,N
1635130315.9,286047000.0,N
1635130335.8,286047002.8,N
1635130355.6,286047002.8,N
1635130375.4,286047001.2,N
1635130395.3,286046998.5,N
1635130415.1,286046998.3,N
1635130416.0,286046998.3,N
1635130435.8,286046998.5,N
1635130455.7,286047000.9,N
1635130475.5,286047000.5,N
1635130495.3,286047000.7,N
1635130515.2,286046999.9,N
1635130535.9,286047000.2,N
1635130555.7,286047002.7,N
1635130575.5,286047004.0,N
1635130595.4,286047001.8,N
1635130615.2,286047004.1,N
1635130635.0,286047001.8,N
1635130636.0,286047001.8,N
1635130655.8,286047002.4,N
1635130675.6,286047002.8,N
1635130695.4,286047001.3,N
1635130715.3,286047002.5,N
1635130735.1,286047000.2,N
1635130755.8,286047002.3,N
1635130775.7,286047002.7,N
1635130795.5,286047000.0,N
